This is the latest recevied weather packets stored in our database for station/object F5OWB. If no packets are shown the sender has not sent any weather packets the latest 10 day(s).
| Time | Temp. | Humidity | Pressure | Rain* | Wind** | Luminosity | Snow |
|---|---|---|---|---|---|---|---|
| 1778251359 | 20° C | 49% | 1017 hPa | 0 mm | - | 587 W/m² | - |
| 1778251298 | 20° C | 49% | 1016.9 hPa | 0 mm | - | 601 W/m² | - |
| 1778251240 | 20° C | 50% | 1017 hPa | 0 mm | - | 601 W/m² | - |
| 1778251177 | 20° C | 48% | 1017 hPa | 0 mm | - | 601 W/m² | - |
| 1778251117 | 20° C | 50% | 1017 hPa | 0 mm | - | 598 W/m² | - |
| 1778251058 | 20° C | 47% | 1017 hPa | 0 mm | - | 601 W/m² | - |
| 1778250994 | 20° C | 48% | 1017 hPa | 0 mm | - | 585 W/m² | - |
| 1778250993 | 20° C | 48% | 1017 hPa | 0 mm | - | 585 W/m² | - |
| 1778250934 | 20° C | 51% | 1017 hPa | 0 mm | - | 591 W/m² | - |
| 1778250871 | 20° C | 48% | 1017 hPa | 0 mm | - | 605 W/m² | - |
| 1778250810 | 20° C | 48% | 1017 hPa | 0 mm | - | 610 W/m² | - |
| 1778250752 | 20° C | 47% | 1017 hPa | 0 mm | - | 612 W/m² | - |
| 1778250690 | 20° C | 49% | 1017 hPa | 0 mm | - | 613 W/m² | - |
| 1778250630 | 20° C | 49% | 1017 hPa | 0 mm | - | 615 W/m² | - |
| 1778250570 | 20° C | 50% | 1017 hPa | 0 mm | - | 617 W/m² | - |
| 1778250509 | 20° C | 49% | 1017 hPa | 0 mm | - | 619 W/m² | - |
| 1778250449 | 20° C | 49% | 1017.1 hPa | 0 mm | - | 619 W/m² | - |
| 1778250385 | 20° C | 49% | 1017.1 hPa | 0 mm | - | 624 W/m² | - |
| 1778250323 | 20° C | 47% | 1017.1 hPa | 0 mm | - | 624 W/m² | - |
| 1778250265 | 20° C | 48% | 1017.1 hPa | 0 mm | - | 626 W/m² | - |
| 1778250233 | 20° C | 48% | 1017.1 hPa | 0 mm | - | 628 W/m² | - |
| 1778250139 | 20° C | 51% | 1017.1 hPa | 0 mm | - | 629 W/m² | - |
| 1778250082 | 20° C | 48% | 1017.1 hPa | 0 mm | - | 635 W/m² | - |
| 1778250017 | 20° C | 49% | 1017.1 hPa | 0 mm | - | 635 W/m² | - |
| 1778249954 | 20° C | 50% | 1017.1 hPa | 0 mm | - | 636 W/m² | - |
* Rain latest hour (hover to see other rain measurements)
** Current wind speed in m/s (hover to see current wind gust speed)